EW1159 Weather Reports


time (UTC)temp
F
wind
direction
speed
knots
gust
knots
rain 1hr
in
rain 24hr
in
rain mn
in
humidity
%
barometer
mb
20260504120109 38 338 1.7 5.2 0.00 0.00 0.00 64 987.9
20260504081522 44 264 0.0 0.9 0.00 0.00 0.00 65 987.2
20260504044546 50 332 9.6 16.5 0.00 0.00 0.00 51 985.9
20260504043100 50 347 8.7 21.7 0.00 0.00 0.00 48 985.8
20260504041539 51 13 10.4 20.0 0.00 0.00 0.00 45 985.5
20260504040036 51 347 10.4 20.0 0.00 0.00 0.00 43 985.2
20260504034545 51 26 9.6 20.0 0.00 0.00 0.00 43 984.8
20260504033035 52 33 14.8 24.3 0.00 0.00 0.00 41 984.3
20260504031535 53 35 14.8 22.6 0.00 0.00 0.00 41 983.7
20260504030036 54 19 14.8 18.2 0.00 0.00 0.00 40 983.1
20260504024530 54 23 12.2 15.6 0.00 0.00 0.00 40 982.9
20260504023028 55 53 11.3 18.2 0.00 0.00 0.00 40 982.6
20260504021535 55 345 13.9 22.6 0.00 0.00 0.00 38 982.5
20260504020035 56 30 14.8 22.6 0.00 0.00 0.00 38 982.2
20260504014526 57 29 20.9 25.2 0.00 0.00 0.00 36 981.8
20260504013033 59 46 17.4 26.1 0.00 0.00 0.00 37 981.4
20260504011525 60 23 20.9 26.9 0.00 0.00 0.00 36 981.0
20260504010024 61 18 15.6 23.5 0.00 0.00 0.00 36 980.8
20260504004537 62 15 16.5 24.3 0.00 0.00 0.00 35 980.5
20260504003023 63 343 13.9 22.6 0.00 0.00 0.00 36 980.6
20260504001531 63 330 11.3 20.9 0.00 0.00 0.00 36 980.5
20260504000021 63 347 13.0 25.2 0.00 0.00 0.00 35 980.3
20260503234523 63 349 16.5 27.8 0.00 0.00 0.00 35 980.3
20260503233019 62 340 18.2 24.3 0.00 0.00 0.00 35 980.2
20260503231521 63 345 13.9 23.5 0.00 0.00 0.00 34 980.3
20260503230022 63 352 14.8 25.2 0.00 0.00 0.00 33 980.3
20260503224517 64 37 18.2 26.9 0.00 0.00 0.00 33 980.3
20260503223016 65 43 16.5 25.2 0.00 0.00 0.00 31 980.1
20260503221516 67 53 7.8 17.4 0.00 0.00 0.00 27 979.9
20260503220026 67 47 4.3 10.4 0.00 0.00 0.00 28 980.1
20260503214522 66 297 7.0 16.5 0.00 0.00 0.00 28 980.2
20260503213018 66 56 10.4 16.5 0.00 0.00 0.00 28 980.2
20260503211513 67 56 7.0 15.6 0.00 0.00 0.00 28 980.4
20260503210011 66 43 8.7 12.2 0.00 0.00 0.00 28 980.5
20260503204506 66 46 10.4 14.8 0.00 0.00 0.00 29 980.5
20260503203006 65 61 11.3 19.1 0.00 0.00 0.00 28 980.8
20260503201502 65 52 14.8 15.6 0.00 0.00 0.00 29 981.0
20260503200001 67 340 4.3 10.4 0.00 0.00 0.00 23 981.1
20260503194624 66 345 5.2 10.4 0.00 0.00 0.00 25 981.2
20260503193055 66 304 9.6 13.9 0.00 0.00 0.00 26 981.4
20260503191600 66 333 1.7 9.6 0.00 0.00 0.00 26 981.7
20260503190057 65 335 3.5 12.2 0.00 0.00 0.00 27 982.1
20260503184548 64 336 5.2 8.7 0.00 0.00 0.00 27 982.3
20260503183054 63 334 5.2 14.8 0.00 0.00 0.00 29 982.5
20260503181557 64 360 6.1 13.9 0.00 0.00 0.00 30 982.6
20260503180049 64 322 7.8 19.1 0.00 0.00 0.00 25 982.9
20260503174541 63 315 7.8 13.9 0.00 0.00 0.00 26 983.1
20260503173040 63 302 6.1 19.1 0.00 0.00 0.00 30 983.3
20260503171534 62 318 7.0 17.4 0.00 0.00 0.00 29 983.5